Location: Bullards Ferry
(33.9807°N, 82.8096°W)
Time: 05:45:41
(UTC+00:00)

ISS - Visible Passes

Search period start: 27 November 2021 00:00
Search period end: 07 December 2021 00:00
Orbit: 417 x 423 km, 51.6° (Epoch: 27 November)

Date Brightness Start Highest point End Pass type
(mag) Time Alt. Az. Time Alt. Az. Time Alt. Az.
04 Dec -1.5 23:15:39 10° N 23:16:49 11° NNE 23:17:00 11° NNE visible
06 Dec -2.1 00:03:34 10° NW 00:05:13 24° NNW 00:05:13 24° NNW visible
06 Dec -2.6 23:16:32 10° NNW 23:19:26 25° NE 23:20:41 20° ENE visible
